Tracking 19794 objects as of 21-Jul-2019
HD Live streaming from Space Station
objects crossing your sky now

NOAA 16 DEB

Track NOAA 16 DEB now!
10-day predictions


NORAD ID: 41253
Int'l Code: 2000-055FD
Perigee: 763.0 km
Apogee: 856.0 km
Inclination: 99.0 °
Period: 100.9 minutes
Semi major axis: 7180 km
RCS: Unknown
Launch date: September 21, 2000
Source: United States (US)
Launch site: AIR FORCE WESTERN TEST RANGE (AFWTR)

Note: This is SATELLITE DEBRIS
aabbcc
Your satellite tracking list
Your tracking list is empty




NASA's NSSDC Master Catalog

Two Line Element Set (TLE):
1 41253U 00055FD  19201.55800386  .00001003  00000-0  42364-3 0  9999
2 41253  98.9944 320.4464 0064803 256.9230 102.4711 14.26831146184208
Source of the keplerian elements: AFSPC